Newport, Oregon, United States (97365)
Lat: 44.64N, Lon: 124.05W
Wx Zone: ORZ002
Local Info
Past Weather Observations for Today

NOTE: This archive is for the closest National Weather Service station to Newport. Information may differ from the station used for current weather conditions.

Click here for Long-term Archive

Time Weather Temperature Dewpoint Humidity Pressure Winds Precip Visibility
16:55
Clear
61°F / 16°C 55°F / 13°C 83% 30.21 in
(1023 mb)
SSE 19.6 mph
(SSE 32 kph)
- 10SM
16:35
Clear
61°F / 16°C 55°F / 13°C 83% 30.21 in
(1023 mb)
SSE 20.7 mph
(SSE 33 kph)
- 10SM
16:15
Clear
61°F / 16°C 55°F / 13°C 83% 30.21 in
(1023 mb)
SSE 19.6 mph
(SSE 32 kph)
- 10SM
15:55
Clear
63°F / 17°C 55°F / 13°C 77% 30.21 in
(1023 mb)
SSE 19.6 mph
(SSE 32 kph)
- 10SM
15:35
Partly Cloudy
61°F / 16°C 55°F / 13°C 83% 30.21 in
(1023 mb)
SSE 19.6 mph
(SSE 32 kph)
- 10SM
15:15
Mostly Cloudy
63°F / 17°C 55°F / 13°C 77% 30.21 in
(1023 mb)
SSE 21.9 mph
(SSE 35 kph)
- 10SM
14:55
Mostly Cloudy
61°F / 16°C 55°F / 13°C 83% 30.21 in
(1023 mb)
S 19.6 mph
(S 32 kph)
- 10SM
14:35
Mostly Cloudy
63°F / 17°C 55°F / 13°C 77% 30.21 in
(1023 mb)
SSE 21.9 mph
(SSE 35 kph)
- 10SM
14:15
Partly Cloudy
61°F / 16°C 55°F / 13°C 83% 30.18 in
(1022 mb)
SSE 21.9 mph
(SSE 35 kph)
- 10SM
13:55
Partly Cloudy
63°F / 17°C 55°F / 13°C 77% 30.18 in
(1022 mb)
SSE 20.7 mph
(SSE 33 kph)
- 10SM
13:35
Mostly Cloudy
61°F / 16°C 55°F / 13°C 83% 30.18 in
(1022 mb)
SSE 19.6 mph
(SSE 32 kph)
- 10SM
13:15
Partly Cloudy
63°F / 17°C 55°F / 13°C 77% 30.18 in
(1022 mb)
S 19.6 mph
(S 32 kph)
- 10SM
12:55
Partly Cloudy
61°F / 16°C 55°F / 13°C 83% 30.18 in
(1022 mb)
SSE 21.9 mph
(SSE 35 kph)
- 10SM
12:35
Partly Cloudy
61°F / 16°C 57°F / 14°C 88% 30.18 in
(1022 mb)
SSE 17.3 mph
(SSE 28 kph)
- 10SM
12:15
Overcast
59°F / 15°C 55°F / 13°C 88% 30.18 in
(1022 mb)
SSE 15 mph
(SSE 24 kph)
- 10SM
11:55
Overcast
57°F / 14°C 55°F / 13°C 94% 30.18 in
(1022 mb)
SSE 15 mph
(SSE 24 kph)
- 10SM
11:35
Overcast
57°F / 14°C 55°F / 13°C 94% 30.15 in
(1021 mb)
S 12.7 mph
(S 20 kph)
- 10SM
11:15
Mostly Cloudy
57°F / 14°C 55°F / 13°C 94% 30.18 in
(1022 mb)
S 9.2 mph
(S 15 kph)
- 10SM
10:55
Mostly Cloudy
57°F / 14°C 55°F / 13°C 94% 30.15 in
(1021 mb)
S 9.2 mph
(S 15 kph)
- 10SM
10:35
Mostly Cloudy
57°F / 14°C 55°F / 13°C 94% 30.15 in
(1021 mb)
S 12.7 mph
(S 20 kph)
- 10SM
10:15
Overcast
Light Rain
55°F / 13°C 55°F / 13°C 100% 30.15 in
(1021 mb)
S 9.2 mph
(S 15 kph)
- 10SM
09:55
Overcast
Rain
55°F / 13°C 55°F / 13°C 100% 30.15 in
(1021 mb)
SSE 10.4 mph
(SSE 17 kph)
0.01 in
(0.25 mm)
5SM
09:35
Overcast
Light Rain
55°F / 13°C 55°F / 13°C 100% 30.15 in
(1021 mb)
SW 10.4 mph
(SW 17 kph)
0.01 in
(0.25 mm)
7SM
09:15
Overcast
Light Rain
55°F / 13°C 55°F / 13°C 100% 30.12 in
(1020 mb)
S 5.8 mph
(S 9 kph)
- 5SM
08:55
Overcast
Rain
54°F / 12°C 54°F / 12°C 100% 30.12 in
(1020 mb)
SSE 5.8 mph
(SSE 9 kph)
0.09 in
(2.29 mm)
7SM
08:35
Overcast
Rain
55°F / 13°C 54°F / 12°C 94% 30.12 in
(1020 mb)
SSE 8.1 mph
(SSE 13 kph)
0.08 in
(2.03 mm)
4SM
08:15
Overcast
Heavy Rain
55°F / 13°C 54°F / 12°C 94% 30.12 in
(1020 mb)
SSE 6.9 mph
(SSE 11 kph)
0.04 in
(1.02 mm)
3SM
07:55
Overcast
Rain
55°F / 13°C 54°F / 12°C 94% 30.12 in
(1020 mb)
SSE 5.8 mph
(SSE 9 kph)
0.06 in
(1.52 mm)
2 1/2SM
07:35
Overcast
Drizzle
55°F / 13°C 54°F / 12°C 94% 30.12 in
(1020 mb)
SW 8.1 mph
(SW 13 kph)
0.02 in
(0.51 mm)
1 3/4SM
07:15
Overcast
Drizzle
55°F / 13°C 54°F / 12°C 94% 30.09 in
(1019 mb)
SSE 9.2 mph
(SSE 15 kph)
0.01 in
(0.25 mm)
2SM
06:55
Overcast
Rain
55°F / 13°C 54°F / 12°C 94% 30.09 in
(1019 mb)
SSE 16.1 mph
(SSE 26 kph)
0.08 in
(2.03 mm)
2SM
06:35
Overcast
Rain
55°F / 13°C 55°F / 13°C 100% 30.09 in
(1019 mb)
SSE 13.8 mph
(SSE 22 kph)
0.05 in
(1.27 mm)
1 1/2SM
06:15
Overcast
Drizzle
55°F / 13°C 55°F / 13°C 100% 30.09 in
(1019 mb)
S 16.1 mph
(S 26 kph)
0.02 in
(0.51 mm)
2 1/2SM
05:55
Overcast
Drizzle
55°F / 13°C 54°F / 12°C 94% 30.09 in
(1019 mb)
S 13.8 mph
(S 22 kph)
0.08 in
(2.03 mm)
2SM
05:35
Overcast
Drizzle
55°F / 13°C 54°F / 12°C 94% 30.09 in
(1019 mb)
S 16.1 mph
(S 26 kph)
0.06 in
(1.52 mm)
2SM
05:15
Overcast
Drizzle
55°F / 13°C 54°F / 12°C 94% 30.09 in
(1019 mb)
S 11.5 mph
(S 19 kph)
0.02 in
(0.51 mm)
2SM
04:55
Overcast
Drizzle
55°F / 13°C 54°F / 12°C 94% 30.09 in
(1019 mb)
S 15 mph
(S 24 kph)
0.02 in
(0.51 mm)
3SM
04:35
Overcast
Drizzle
55°F / 13°C 54°F / 12°C 94% 30.09 in
(1019 mb)
S 17.3 mph
(S 28 kph)
0.01 in
(0.25 mm)
3SM
04:15
Overcast
Rain
55°F / 13°C 54°F / 12°C 94% 30.09 in
(1019 mb)
S 16.1 mph
(S 26 kph)
0.01 in
(0.25 mm)
4SM
03:55
Overcast
Light Rain
55°F / 13°C 54°F / 12°C 94% 30.06 in
(1018 mb)
SSE 13.8 mph
(SSE 22 kph)
0.10 in
(2.54 mm)
7SM
03:35
Overcast
Light Rain
55°F / 13°C 54°F / 12°C 94% 30.06 in
(1018 mb)
S 10.4 mph
(S 17 kph)
0.08 in
(2.03 mm)
7SM
03:15
Overcast
Rain
55°F / 13°C 54°F / 12°C 94% 30.06 in
(1018 mb)
S 11.5 mph
(S 19 kph)
0.05 in
(1.27 mm)
7SM
02:55
Overcast
Rain
55°F / 13°C 54°F / 12°C 94% 30.06 in
(1018 mb)
S 9.2 mph
(S 15 kph)
0.07 in
(1.78 mm)
7SM
02:35
Overcast
Light Rain
55°F / 13°C 54°F / 12°C 94% 30.06 in
(1018 mb)
SSE 15 mph
(SSE 24 kph)
0.05 in
(1.27 mm)
7SM
02:15
Overcast
Rain
55°F / 13°C 54°F / 12°C 94% 30.06 in
(1018 mb)
S 11.5 mph
(S 19 kph)
0.03 in
(0.76 mm)
7SM
01:55
Overcast
Rain
55°F / 13°C 54°F / 12°C 94% 30.06 in
(1018 mb)
S 12.7 mph
(S 20 kph)
0.06 in
(1.52 mm)
4SM
01:35
Overcast
Rain
55°F / 13°C 54°F / 12°C 94% 30.09 in
(1019 mb)
S 18.4 mph
(S 30 kph)
0.01 in
(0.25 mm)
4SM
01:15
Overcast
Drizzle
55°F / 13°C 54°F / 12°C 94% 30.09 in
(1019 mb)
SSE 15 mph
(SSE 24 kph)
- 7SM
00:55
Overcast
Light Rain
57°F / 14°C 54°F / 12°C 88% 30.09 in
(1019 mb)
SSE 9.2 mph
(SSE 15 kph)
- 5SM
00:35
Overcast
Rain
57°F / 14°C 54°F / 12°C 88% 30.09 in
(1019 mb)
SSE 9.2 mph
(SSE 15 kph)
- 7SM
00:15
Overcast
57°F / 14°C 54°F / 12°C 88% 30.09 in
(1019 mb)
S 10.4 mph
(S 17 kph)
- 10SM
Time Weather Temperature Dewpoint Humidity Pressure Winds Precip Visibility


Weather for websites

WeatherForYou.com, LLC is not responsible for any damages or problems caused by this service. Current weather conditions are obtained from the closest station including government and personal stations which may have varying degrees of accuracy. Weather forecasts are derived from the NOAA NDFD. Like all things, this site belongs to Jesus Christ... He just trusts me to maintain it. If you have any questions or comments email webmaster@weatherforyou.com

Copyright © 2014, WeatherForYou.com LLC. All rights reserved.